This is the latest recevied weather packets stored in our database for station/object KC4GS-13. If no packets are shown the sender has not sent any weather packets the latest 10 day(s).
| Time | Temp. | Humidity | Pressure | Rain* | Wind** | Luminosity | Snow |
|---|---|---|---|---|---|---|---|
| 1788475394 | 35° C | 54% | 1016.2 hPa | 0 mm | - | 44 W/m² | - |
| 1788475090 | 35° C | 51% | 1016.5 hPa | 0 mm | - | 47 W/m² | - |
| 1788474789 | 35.56° C | 51% | 1016.3 hPa | 0 mm | - | 51 W/m² | - |
| 1788474484 | 35.56° C | 50% | 1016.3 hPa | 0 mm | - | 55 W/m² | - |
| 1788474183 | 35.56° C | 50% | 1016.5 hPa | 0 mm | - | 57 W/m² | - |
| 1788473877 | 35.56° C | 50% | 1016.3 hPa | 0 mm | - | 62 W/m² | - |
| 1788473576 | 36.11° C | 49% | 1016.4 hPa | 0 mm | - | 90 W/m² | - |
| 1788473275 | 36.11° C | 49% | 1016.3 hPa | 0 mm | - | 212 W/m² | - |
| 1788472969 | 36.11° C | 49% | 1016.3 hPa | 0 mm | - | 221 W/m² | - |
| 1788472668 | 35.56° C | 49% | 1016.3 hPa | 0 mm | - | 238 W/m² | - |
| 1788472364 | 36.11° C | 49% | 1016.1 hPa | 0 mm | - | 246 W/m² | - |
| 1788472062 | 36.11° C | 48% | 1016.3 hPa | 0 mm | - | 244 W/m² | - |
| 1788471758 | 36.67° C | 49% | 1015.8 hPa | 0 mm | - | 272 W/m² | - |
| 1788471452 | 36.11° C | 48% | 1016.4 hPa | 0 mm | - | 313 W/m² | - |
| 1788471148 | 36.11° C | 49% | 1016.2 hPa | 0 mm | - | 333 W/m² | - |
| 1788470844 | 36.67° C | 48% | 1016.1 hPa | 0 mm | - | 343 W/m² | - |
| 1788470540 | 36.67° C | 47% | 1016.1 hPa | 0 mm | - | 358 W/m² | - |
| 1788470233 | 37.22° C | 48% | 1016.3 hPa | 0 mm | - | 377 W/m² | - |
| 1788469930 | 37.22° C | 47% | 1016.4 hPa | 0 mm | - | 363 W/m² | - |
| 1788469626 | 37.22° C | 47% | 1016.4 hPa | 0 mm | - | 407 W/m² | - |
| 1788469321 | 37.22° C | 47% | 1016.2 hPa | 0 mm | - | 334 W/m² | - |
| 1788469021 | 37.22° C | 48% | 1016.2 hPa | 0 mm | - | 419 W/m² | - |
| 1788468720 | 37.78° C | 46% | 1016.4 hPa | 0 mm | - | 455 W/m² | - |
| 1788468416 | 37.22° C | 46% | 1016.3 hPa | 0 mm | - | 448 W/m² | - |
| 1788468112 | 37.22° C | 46% | 1016.5 hPa | 0 mm | - | 462 W/m² | - |
* Rain latest hour (hover to see other rain measurements)
** Current wind speed in m/s (hover to see current wind gust speed)